[[{"header":{"parameterUnit":"m.s-1","parameterCategory":1,"la1":30.2991,"la2":30.254,"lo1":-89.0895,"lo2":-89.0444,"dy":0.0017,"dx":0.0017,"nx":28,"ny":28,"refTime":"2025-12-16T03:00:00:Z","depth":0,"parameterNumber":2,"parameterNumberName":"U-component_of_WINDS"},"data":[0,0,0,0,0,0,0,0,0,0,0,0,0,0,0,0,0,0,0,0,0,0,0,0,0,0,0,0,0,0,0,0,0,0,0,0,0,0,0,0,0,0,0,0,0,0,0,0,0,0,0,0,0,0,0,0,0,0,-3.5105,-3.5106,0,-3.5197,-3.5198,-3.5199,-3.5101,-3.5097,-3.5094,-3.509,-3.5187,-3.5193,-3.5199,0,0,0,0,0,0,0,0,0,0,0,0,0,-3.4848,-3.4853,-3.5105,-3.5106,-3.5107,-3.5197,-3.5198,-3.5199,-3.5102,-3.5097,-3.5093,-3.5088,-3.5185,-3.5192,-3.5199,0,0,0,0,0,0,0,0,0,0,0,0,0,-3.4952,-3.4855,-3.5105,-3.5069,-3.5067,-3.5197,-3.5198,-3.52,-3.5103,-3.5097,-3.5091,-3.5086,-3.5183,-3.5191,-3.52,-3.537,0,0,-3.5228,-3.5232,0,0,0,0,0,0,0,0,-3.4946,-3.4962,-3.5073,-3.5072,-3.507,-3.5132,-3.5143,-3.5257,-3.5104,-3.5089,-3.509,-3.5083,-3.5173,-3.5183,-3.5213,-3.5375,-3.5379,-3.5229,-3.5235,-3.5239,-3.5241,0,0,0,0,0,0,0,-3.4939,-3.4957,-3.5141,-3.5075,-3.5073,-3.505,-3.5058,-3.5164,-3.5162,-3.509,-3.5083,-3.5095,-3.5171,-3.5204,-3.5214,-3.538,-3.5229,-3.5237,-3.5243,-3.5246,-3.5688,-3.5694,0,0,0,0,0,0,-3.4936,-3.4952,-3.5139,-3.5144,-3.4993,-3.5059,-3.5069,-3.5118,-3.5161,-3.5162,-3.51,-3.509,-3.5191,-3.5204,-3.5217,-3.5421,-3.5239,-3.5247,-3.5252,-3.5682,-3.569,-3.5697,0,0,0,0,0,0,-3.493,-3.4953,-3.5135,-3.5046,-3.5067,-3.507,-3.5125,-3.5122,-3.5155,-3.5168,-3.5167,-3.5134,-3.5187,-3.5204,-3.5333,-3.5423,-3.5251,-3.526,-3.5675,-3.5685,-3.5693,-3.5828,0,0,0,0,0,0,-3.4923,-3.4952,-3.5016,-3.5048,-3.5073,-3.5249,-3.5131,-3.5128,-3.5171,-3.5159,-3.52,-3.5201,-3.5184,-3.532,-3.5342,-3.5432,-3.5267,-3.5667,-3.5679,-3.569,-3.5816,-3.5841,-3.5863,0,0,0,0,0,-3.4915,-3.505,-3.5019,-3.5043,-3.5152,-3.5254,-3.5268,-3.5245,-3.5178,-3.5243,-3.5252,-3.52,-3.5409,-3.5334,-3.5358,-3.5452,-3.5661,-3.5676,-3.5689,-3.5805,-3.5836,-3.5862,0,0,0,0,0,0,-3.5029,-3.5054,-3.502,-3.517,-3.5211,-3.5237,-3.5319,-3.5278,-3.5339,-3.5326,-3.5296,-3.5306,-3.5443,-3.546,-3.5376,-3.562,-3.5524,-3.5544,-3.5604,-3.5633,-3.5656,-3.5651,-3.5274,0,0,0,0,0,-3.5071,-3.5151,-3.5169,-3.5299,-3.5321,-3.5317,-3.536,-3.5339,-3.538,-3.5397,-3.5415,-3.5458,-3.5533,-3.5584,-3.5654,-3.5817,-3.5826,-3.5894,-3.5917,-3.5936,-3.5954,-3.6044,-3.6075,-3.5743,-3.5743,-3.5742,0,0,-3.516,-3.5184,-3.5236,-3.5323,-3.5352,-3.5437,-3.5332,-3.5425,-3.5489,-3.5412,-3.5535,-3.555,-3.5595,-3.5743,-3.5809,-3.5761,-3.6048,-3.5954,-3.5969,-3.5977,-3.6062,-3.6093,-3.6121,-3.5752,-3.5751,-3.5749,0,0,-3.5366,-3.5391,-3.5504,-3.5535,-3.558,-3.5576,-3.5603,-3.5636,-3.5643,-3.5766,-3.5711,-3.5785,-3.5915,-3.5951,-3.5986,-3.6206,-3.6162,-3.623,-3.6353,-3.6441,-3.6467,-3.649,-3.6572,-3.6601,-3.6247,-3.6247,-3.6248,0,-3.5472,-3.5596,-3.5567,-3.5665,-3.5706,-3.5639,-3.5754,-3.5786,-3.5852,-3.5882,-3.5828,-3.5991,-3.6016,-3.6173,-3.6226,-3.6256,-3.6288,-3.6226,-3.6465,-3.6488,-3.651,-3.6587,-3.6617,-3.6256,-3.6255,-3.6254,-3.6253,0,-3.5725,-3.5812,-3.5897,-3.5963,-3.6013,-3.6119,-3.6107,-3.6162,-3.6136,-3.6138,-3.6265,-3.6294,-3.637,-3.6404,-3.638,-3.6558,-3.6527,-3.647,-3.6374,-3.655,-3.6622,-3.6651,-3.6267,-3.6264,-3.6262,-3.626,0,0,-3.6007,-3.6054,-3.6087,-3.6116,-3.6161,-3.6229,-3.6332,-3.6405,-3.6454,-3.6501,-3.6589,-3.6701,-3.6648,-3.6688,-3.6667,-3.6744,-3.692,-3.6677,-3.6678,-3.6724,-3.712,-3.7166,-3.72,-3.6889,-3.6895,-3.6899,-3.7117,0,-3.6216,-3.6395,-3.6372,-3.6544,-3.6626,-3.6563,-3.6654,-3.6692,-3.6697,-3.6768,-3.6772,-3.6854,-3.6776,-3.6801,-3.6874,-3.6883,-3.7,-3.6867,-3.6973,-3.6977,-3.6966,-3.7237,-3.7285,-3.749,-3.7145,-3.715,-3.7153,0,-3.6483,-3.6541,-3.6722,-3.6755,-3.6789,-3.6871,-3.6937,-3.7004,-3.7047,-3.7045,-3.709,-3.7056,-3.7161,-3.7061,-3.7207,-3.7117,-3.7159,-3.717,-3.7178,-3.7189,-3.7078,-3.7259,-3.7554,-3.7586,-3.7197,-3.7193,-3.719,0,-3.6675,-3.6797,-3.6921,-3.6948,-3.699,-3.7049,-3.707,-3.7106,-3.7152,-3.721,-3.724,-3.7309,-3.7348,-3.7404,-3.739,-3.7318,-3.754,-3.7438,-3.7544,-3.7545,-3.7596,-3.7593,-3.7905,-3.7618,-3.7618,-3.7617,-3.7616,0,-3.6912,-3.7026,-3.7008,-3.7085,-3.7211,-3.7183,-3.7309,-3.7322,-3.7355,-3.7434,-3.7384,-3.746,-3.7435,-3.751,-3.75,-3.7624,-3.7641,-3.7644,-3.7641,-3.765,-3.7651,-3.768,-3.7666,-3.7625,-3.7623,-3.7622,-3.762,0,-3.7148,-3.714,-3.7272,-3.7301,-3.7311,-3.7403,-3.7427,-3.7501,-3.7501,-3.7602,-3.7624,-3.7626,-3.7711,-3.7702,-3.7798,-3.7791,-3.7946,-3.7924,-3.7932,-3.7928,-3.8035,-3.8026,-3.8379,-3.8425,-3.8106,-3.8109,-3.8111,0,-3.7301,-3.7387,-3.7425,-3.7474,-3.7499,-3.7579,-3.7625,-3.7602,-3.7653,-3.7708,-3.7775,-3.7856,-3.792,-3.806,-3.807,-3.8144,-3.8125,-3.8243,-3.8136,-3.8144,-3.813,-3.8126,-3.8136,-3.8265,-3.8269,-3.8272,-3.8274,0,-3.7575,-3.7567,-3.7636,-3.7705,-3.7762,-3.7815,-3.7862,-3.7906,-3.7887,-3.7947,-3.8034,-3.8083,-3.8181,-3.8263,-3.8333,-3.8354,-3.8313,-3.8308,-3.8336,-3.8349,-3.8351,-3.8354,-3.7993,-3.83,-3.8298,-3.8296,-3.8294,-3.8293,-3.7776,-3.7851,-3.789,-3.7969,-3.8002,-3.8048,-3.8119,-3.8128,-3.82,-3.8277,-3.8259,-3.8358,-3.8399,-3.8488,-3.8517,-3.8595,-3.8552,-3.8593,-3.8604,-3.8615,-3.8629,-3.8336,-3.8607,-3.8606,-3.8605,-3.8605,-3.8604,0,-3.805,-3.8072,-3.8145,-3.8213,-3.8276,-3.8229,-3.828,-3.8336,-3.8423,-3.8465,-3.8529,-3.8629,-3.8709,-3.8725,-3.8801,-3.8861,-3.8844,-3.8882,-3.8879,-3.8885,-3.8662,-3.863,-3.8894,-3.8894,-3.8894,-3.8894,-3.8894,-3.8894,-3.82,-3.8324,-3.8321,-3.8462,-3.8483,-3.8579,-3.8613,-3.8655,-3.8689,-3.8803,-3.8869,-3.8878,-3.8911,-3.8989,-3.906,-3.9063,-3.9095,-3.9142,-3.9138,-3.8929,-3.89,-3.8873,-3.8843,-3.9148,-3.9148,-3.9354,-3.9356,-3.9358]},{"header":{"parameterUnit":"m.s-1","parameterCategory":1,"la1":30.2991,"la2":30.254,"lo1":-89.0895,"lo2":-89.0444,"dy":0.0017,"dx":0.0017,"nx":28,"ny":28,"refTime":"2025-12-16T03:00:00:Z","depth":0,"parameterNumber":3,"parameterNumberName":"V-component_of_WINDS"},"data":[0,0,0,0,0,0,0,0,0,0,0,0,0,0,0,0,0,0,0,0,0,0,0,0,0,0,0,0,0,0,0,0,0,0,0,0,0,0,0,0,0,0,0,0,0,0,0,0,0,0,0,0,0,0,0,0,0,0,-2.8939,-2.8939,0,-2.8925,-2.8925,-2.8925,-2.8875,-2.8874,-2.8872,-2.8871,-2.8857,-2.8858,-2.8858,0,0,0,0,0,0,0,0,0,0,0,0,0,-2.8921,-2.8922,-2.8939,-2.8939,-2.8939,-2.8925,-2.8925,-2.8925,-2.8875,-2.8874,-2.8872,-2.8871,-2.8857,-2.8858,-2.8859,0,0,0,0,0,0,0,0,0,0,0,0,0,-2.8921,-2.8922,-2.8939,-2.8912,-2.891,-2.8926,-2.8925,-2.8925,-2.8875,-2.8874,-2.8872,-2.887,-2.8857,-2.8858,-2.8859,-2.8899,0,0,-2.8862,-2.8862,0,0,0,0,0,0,0,0,-2.8921,-2.8921,-2.8916,-2.8914,-2.8911,-2.89,-2.8914,-2.8916,-2.8876,-2.8888,-2.8871,-2.8869,-2.8873,-2.8872,-2.8874,-2.8899,-2.8898,-2.8862,-2.8863,-2.8863,-2.8863,0,0,0,0,0,0,0,-2.8921,-2.8922,-2.8934,-2.8916,-2.8913,-2.8901,-2.8899,-2.8914,-2.889,-2.8887,-2.8883,-2.8882,-2.8871,-2.8873,-2.8873,-2.8898,-2.8862,-2.8863,-2.8863,-2.8864,-2.8954,-2.8956,0,0,0,0,0,0,-2.8925,-2.8922,-2.8934,-2.8933,-2.8912,-2.8902,-2.89,-2.8905,-2.889,-2.8886,-2.8884,-2.888,-2.8872,-2.8872,-2.8872,-2.8917,-2.8863,-2.8864,-2.8865,-2.8952,-2.8954,-2.8956,0,0,0,0,0,0,-2.8925,-2.8926,-2.8935,-2.8927,-2.8927,-2.8904,-2.8911,-2.8906,-2.8908,-2.8888,-2.8883,-2.889,-2.887,-2.8871,-2.8893,-2.8916,-2.8864,-2.8865,-2.895,-2.8953,-2.8955,-2.901,0,0,0,0,0,0,-2.8924,-2.8927,-2.8942,-2.8927,-2.8927,-2.8956,-2.8912,-2.8907,-2.891,-2.8904,-2.8892,-2.8888,-2.8869,-2.8891,-2.8894,-2.8917,-2.8866,-2.8948,-2.8951,-2.8954,-2.9006,-2.9014,-2.9021,0,0,0,0,0,-2.8924,-2.8958,-2.8943,-2.8945,-2.8946,-2.8958,-2.8957,-2.8934,-2.8912,-2.8927,-2.8914,-2.8889,-2.8914,-2.8894,-2.8896,-2.892,-2.8946,-2.895,-2.8954,-2.9002,-2.9012,-2.9021,0,0,0,0,0,0,-2.8977,-2.8956,-2.8939,-2.897,-2.8966,-2.8949,-2.8967,-2.8946,-2.8948,-2.8944,-2.8915,-2.8913,-2.8938,-2.8931,-2.891,-2.8958,-2.8926,-2.893,-2.8961,-2.8971,-2.8978,-2.8979,-2.8867,0,0,0,0,0,-2.8992,-2.9003,-2.8984,-2.9013,-2.9012,-2.899,-2.8994,-2.8977,-2.8971,-2.8969,-2.8958,-2.8954,-2.896,-2.8965,-2.897,-2.9004,-2.9,-2.9022,-2.9029,-2.9036,-2.904,-2.9056,-2.9065,-2.8969,-2.8969,-2.8969,0,0,-2.9024,-2.9014,-2.9023,-2.9024,-2.9018,-2.903,-2.8989,-2.9003,-2.9011,-2.8972,-2.8991,-2.8983,-2.8976,-2.9004,-2.9015,-2.8999,-2.9065,-2.9041,-2.9046,-2.9047,-2.9061,-2.907,-2.9078,-2.8972,-2.8972,-2.8971,0,0,-2.9087,-2.9081,-2.9104,-2.9099,-2.9092,-2.9077,-2.9082,-2.9069,-2.9061,-2.908,-2.905,-2.9059,-2.9072,-2.9068,-2.9067,-2.9128,-2.9104,-2.913,-2.917,-2.9186,-2.9193,-2.92,-2.922,-2.9228,-2.9135,-2.9135,-2.9135,0,-2.9128,-2.9144,-2.9119,-2.9134,-2.9135,-2.9099,-2.9121,-2.9118,-2.9113,-2.9114,-2.9096,-2.9109,-2.9102,-2.9128,-2.9142,-2.9144,-2.9148,-2.9131,-2.9194,-2.9201,-2.9206,-2.9225,-2.9233,-2.9138,-2.9137,-2.9137,-2.9137,0,-2.9193,-2.9205,-2.9224,-2.9219,-2.9222,-2.9241,-2.9218,-2.9224,-2.9206,-2.9193,-2.9212,-2.9203,-2.9204,-2.9209,-2.9192,-2.9232,-2.9222,-2.92,-2.9166,-2.9219,-2.9236,-2.9243,-2.9142,-2.9141,-2.914,-2.9139,0,0,-2.929,-2.927,-2.9277,-2.9274,-2.9262,-2.9271,-2.9288,-2.9289,-2.9294,-2.9292,-2.9304,-2.9315,-2.9294,-2.9293,-2.9275,-2.9289,-2.9336,-2.9265,-2.9264,-2.9277,-2.9378,-2.9394,-2.9403,-2.9321,-2.9322,-2.9323,-2.9378,0,-2.9349,-2.9377,-2.9354,-2.9386,-2.9395,-2.9361,-2.9375,-2.937,-2.9358,-2.9364,-2.935,-2.9358,-2.933,-2.9329,-2.9342,-2.9328,-2.9356,-2.9324,-2.9332,-2.9332,-2.9334,-2.9413,-2.943,-2.9483,-2.9385,-2.9386,-2.9387,0,-2.9422,-2.9422,-2.9454,-2.9439,-2.9443,-2.9456,-2.9455,-2.9461,-2.9454,-2.9444,-2.9443,-2.9421,-2.9435,-2.9403,-2.9423,-2.9401,-2.9403,-2.9397,-2.9398,-2.9398,-2.9362,-2.9413,-2.9499,-2.9506,-2.9398,-2.9397,-2.9396,0,-2.9488,-2.9496,-2.9516,-2.9514,-2.9498,-2.9508,-2.9501,-2.9492,-2.9494,-2.9493,-2.9493,-2.9494,-2.9494,-2.9495,-2.9474,-2.9453,-2.9495,-2.9462,-2.9487,-2.9487,-2.9497,-2.9496,-2.9583,-2.95,-2.95,-2.95,-2.9499,0,-2.9556,-2.9577,-2.9545,-2.9557,-2.9579,-2.9553,-2.9575,-2.9565,-2.9557,-2.9566,-2.9537,-2.9546,-2.9517,-2.9523,-2.9506,-2.9524,-2.9525,-2.9517,-2.9512,-2.9519,-2.952,-2.9519,-2.9515,-2.9502,-2.9501,-2.9501,-2.95,0,-2.9633,-2.9613,-2.9632,-2.9614,-2.961,-2.9627,-2.9612,-2.9622,-2.9608,-2.962,-2.9621,-2.9599,-2.9604,-2.9582,-2.9585,-2.9573,-2.9599,-2.9589,-2.9602,-2.9598,-2.9624,-2.9621,-2.9713,-2.9723,-2.9634,-2.9635,-2.9636,0,-2.9677,-2.9693,-2.9676,-2.968,-2.9675,-2.9682,-2.9683,-2.9657,-2.966,-2.9652,-2.9663,-2.9666,-2.9667,-2.9677,-2.966,-2.9661,-2.965,-2.9682,-2.965,-2.9656,-2.9649,-2.9648,-2.9649,-2.9688,-2.969,-2.969,-2.9691,0,-2.9758,-2.9747,-2.975,-2.9749,-2.9752,-2.975,-2.9746,-2.9751,-2.9723,-2.9728,-2.9732,-2.9733,-2.9735,-2.9737,-2.9735,-2.9728,-2.9705,-2.9701,-2.9707,-2.9714,-2.972,-2.9716,-2.9619,-2.9699,-2.9699,-2.9698,-2.9697,-2.9697,-2.9819,-2.983,-2.982,-2.9824,-2.9819,-2.9816,-2.9824,-2.981,-2.9814,-2.9813,-2.9797,-2.9805,-2.9796,-2.979,-2.9785,-2.979,-2.9775,-2.9783,-2.9785,-2.9787,-2.9791,-2.972,-2.9789,-2.9789,-2.9789,-2.9789,-2.9789,0,-2.9897,-2.9888,-2.9893,-2.9888,-2.9891,-2.9869,-2.9863,-2.9867,-2.9874,-2.9867,-2.9868,-2.9873,-2.9876,-2.986,-2.9859,-2.9867,-2.9856,-2.9868,-2.9866,-2.9865,-2.9805,-2.98,-2.9876,-2.9876,-2.9876,-2.9876,-2.9876,-2.9876,-2.9938,-2.9955,-2.9943,-2.9957,-2.9948,-2.9955,-2.9953,-2.995,-2.9944,-2.9951,-2.9953,-2.9942,-2.9931,-2.993,-2.993,-2.9925,-2.9926,-2.9941,-2.9933,-2.9878,-2.9869,-2.9861,-2.9856,-2.9942,-2.9942,-2.9991,-2.9992,-2.9992]}]]